This demonstration page uses our WeatherBlox Daily Observations layout. Learn more.

40.92945, -100.16068

Hourly Observations for August 31, 2016

Temp ( °F °C ) Dew Point ( °F °C ) Humidity (%) Winds ( mph kmh ) Pressure ( in mb ) Visibility ( mi km ) Precip ( " mm )
12:15 am 00:15 Mostly Cloudy 69 20.3 66 18.8 91 91 Calm 30.12 1020 7 11.265408 0 0
12:35 am 00:35 Mostly Cloudy with Mist and Fog 69 20.4 66 19 92 92 Calm 30.12 1020 5 8.04672 0 0
12:55 am 00:55 Partly Cloudy with Mist and Fog 68 19.9 65 18.6 92 92 Calm 30.12 1020 4 6.437376 0 0
1:15 am 01:15 Clear with Mist and Fog 67 19.5 65 18.3 93 93 Calm 30.12 1020 4 6.437376 0 0
1:35 am 01:35 Clear with Mist and Fog 66 19.1 64 18 93 93 Calm 30.12 1020 3 4.828032 0 0
1:55 am 01:55 Clear with Mist and Fog 65 18.5 64 17.5 94 94 Calm 30.12 1020 2 3.218688 0 0
2:15 am 02:15 Mostly Cloudy with Fog 65 18.1 63 17.2 95 95 Calm 30.15 1021 0.5 0.804672 0 0
2:35 am 02:35 Mostly Cloudy with Fog 64 18 63 17.2 95 95 Calm 30.15 1021 0.25 0.402336 0 0
2:55 am 02:55 Mostly Cloudy with Fog 64 17.5 62 16.7 95 95 N 3 6 30.15 1021 0.5 0.804672 0 0
3:15 am 03:15 Cloudy with Fog 64 18 63 17.2 95 95 Calm 30.15 1021 0.5 0.804672 0 0
3:35 am 03:35 Cloudy with Fog 64 18 63 17.3 96 96 NNE 3 6 30.15 1021 0.5 0.804672 0 0
3:55 am 03:55 Cloudy with Mist and Fog 65 18.2 64 17.5 96 96 Calm 30.15 1021 0.75 1.207008 0 0
4:15 am 04:15 Cloudy with Mist and Fog 65 18.3 64 17.6 96 96 NNE 5 7 30.12 1020 0.75 1.207008 0 0
4:35 am 04:35 Cloudy with Mist and Fog 65 18.5 64 17.8 96 96 NNE 3 6 30.18 1022 1.5 2.414016 0 0
4:55 am 04:55 Cloudy with Mist and Fog 66 18.7 64 18 96 96 Calm 30.15 1021 1.5 2.414016 0 0
5:15 am 05:15 Cloudy with Mist and Fog 66 18.7 64 18 96 96 Calm 30.12 1020 1.75 2.816352 0 0
5:35 am 05:35 Cloudy with Mist and Fog 65 18.6 64 18 96 96 Calm 30.12 1020 0.75 1.207008 0 0
5:55 am 05:55 Cloudy with Fog 65 18.6 64 18 96 96 NNE 3 6 30.12 1020 0.25 0.402336 0 0
6:15 am 06:15 Cloudy with Mist and Fog 65 18.5 64 17.9 96 96 NNE 3 6 30.12 1020 0.75 1.207008 0 0
6:35 am 06:35 Mostly Cloudy with Mist and Fog 65 18.5 64 17.8 96 96 NNE 3 6 30.12 1020 2 3.218688 0 0
6:55 am 06:55 Partly Cloudy with Mist and Fog 65 18.3 64 17.6 96 96 NNE 3 6 30.12 1020 2 3.218688 0 0
7:15 am 07:15 Partly Cloudy with Mist and Fog 65 18.2 64 17.5 96 96 Calm 30.15 1021 1.5 2.414016 0 0
7:35 am 07:35 Cloudy with Mist and Fog 65 18.5 64 17.7 95 95 E 3 6 30.12 1020 1.75 2.816352 0 0
7:55 am 07:55 Cloudy with Mist and Fog 65 18.5 64 17.8 96 96 E 5 7 30.12 1020 1.5 2.414016 0 0
8:15 am 08:15 Cloudy with Fog 65 18.5 64 17.7 95 95 Calm 30.18 1022 0.25 0.402336 0 0
8:35 am 08:35 Cloudy with Fog 66 18.7 64 18 96 96 NE 6 9 30.15 1021 0.5 0.804672 0 0
8:55 am 08:55 Cloudy with Fog 66 18.9 65 18.1 95 95 ENE 5 7 30.15 1021 0.25 0.402336 0 0
9:15 am 09:15 Cloudy with Mist and Fog 66 19.1 65 18.5 96 96 ENE 7 11 30.15 1021 1.5 2.414016 0 0
9:35 am 09:35 Cloudy with Mist and Fog 67 19.3 65 18.5 95 95 ENE 6 9 30.15 1021 3 4.828032 0 0
9:55 am 09:55 Cloudy with Mist and Fog 67 19.5 65 18.5 94 94 E 6 9 30.15 1021 4 6.437376 0 0
10:15 am 10:15 Partly Cloudy with Mist and Fog 68 20 65 18.6 92 92 E 6 9 30.15 1021 5 8.04672 0 0
10:35 am 10:35 Partly Cloudy with Mist and Fog 69 20.6 66 18.8 89 89 E 8 13 30.15 1021 5 8.04672 0 0
10:55 am 10:55 Mostly Cloudy with Haze 70 21.1 65 18.6 86 86 E 6 9 30.15 1021 5 8.04672 0 0
11:15 am 11:15 Cloudy with Haze 71 21.6 65 18.6 83 83 E 6 9 30.15 1021 5 8.04672 0 0
11:35 am 11:35 Mostly Cloudy 73 22.5 65 18.5 78 78 ESE 7 11 30.12 1020 7 11.265408 0 0
11:55 am 11:55 Mostly Cloudy 73 22.7 65 18.2 76 76 E 8 13 30.12 1020 7 11.265408 0 0
12:15 pm 12:15 Mostly Cloudy 73 23 65 18.2 74 74 ESE 9 15 30.12 1020 7 11.265408 0 0
12:35 pm 12:35 Mostly Cloudy 74 23.2 64 17.9 72 72 E 8 13 30.12 1020 10 16.09344 0 0
12:55 pm 12:55 Cloudy 74 23.3 65 18.2 73 73 E 7 11 30.12 1020 7 11.265408 0 0
1:15 pm 13:15 Cloudy 74 23.6 65 18.6 74 74 E 10 17 30.12 1020 10 16.09344 0 0
1:35 pm 13:35 Cloudy 75 24.1 64 17.7 68 68 E 9 15 30.12 1020 10 16.09344 0 0
1:55 pm 13:55 Cloudy 75 24 63 17.4 67 67 ESE 10 17 30.12 1020 10 16.09344 0 0
2:15 pm 14:15 Mostly Cloudy 75 24.1 64 17.5 67 67 E 8 13 30.09 1019 10 16.09344 0 0
2:35 pm 14:35 Partly Cloudy 76 24.5 62 16.7 62 62 E 10 17 30.09 1019 10 16.09344 0 0
2:55 pm 14:55 Mostly Cloudy with Nearby Thunderstorms 76 24.7 64 17.6 65 65 E 12 19 30.09 1019 10 16.09344 0 0
3:15 pm 15:15 Mostly Cloudy 77 25.2 64 18 64 64 ESE 10 17 30.06 1018 10 16.09344 0 0
3:35 pm 15:35 Partly Cloudy 78 25.7 64 17.5 61 61 ESE 12 19 30.06 1018 10 16.09344 0 0
3:55 pm 15:55 Partly Cloudy 79 26 62 16.4 56 56 ESE 10 17 30.06 1018 10 16.09344 0 0
4:15 pm 16:15 Sunny 80 26.5 60 15.6 51 51 E 12 19 30.06 1018 10 16.09344 0 0
4:35 pm 16:35 Sunny 80 26.7 60 15.7 51 51 SE 8 13 30.03 1017 10 16.09344 0 0
4:55 pm 16:55 Partly Cloudy 80 26.8 61 15.9 51 51 SE 9 15 30.03 1017 10 16.09344 0 0
5:15 pm 17:15 Partly Cloudy 80 26.5 61 16.1 53 53 SE 10 17 30.03 1017 10 16.09344 0 0
5:35 pm 17:35 Sunny 79 26.2 61 16.1 54 54 ESE 9 15 30.03 1017 10 16.09344 0 0
5:55 pm 17:55 Partly Cloudy 80 26.5 62 16.7 55 55 ESE 7 11 30.03 1017 10 16.09344 0 0
6:15 pm 18:15 Partly Cloudy 78 25.5 62 16.8 59 59 E 9 15 30.03 1017 10 16.09344 0 0
6:35 pm 18:35 Sunny 78 25.7 62 16.5 57 57 ESE 10 17 30.03 1017 10 16.09344 0 0
7:15 pm 19:15 Sunny 77 25 63 17.1 62 62 SE 8 13 30.03 1017 10 16.09344 0 0
7:35 pm 19:35 Sunny 76 24.6 63 17.4 64 64 SE 7 11 30.06 1018 10 16.09344 0 0
7:55 pm 19:55 Sunny 74 23.6 64 17.7 70 70 SSE 5 7 30.06 1018 10 16.09344 0 0
8:15 pm 20:15 Clear 73 22.7 64 17.7 73 73 SE 5 7 30.06 1018 10 16.09344 0 0
8:35 pm 20:35 Partly Cloudy 72 22.2 64 17.7 76 76 ESE 5 7 30.09 1019 10 16.09344 0 0
8:55 pm 20:55 Partly Cloudy 71 21.6 64 18 80 80 SE 3 6 30.12 1020 10 16.09344 0 0
9:15 pm 21:15 Clear 69 20.4 64 17.6 84 84 E 6 9 30.12 1020 7 11.265408 0 0
9:35 pm 21:35 Clear 70 21.2 62 16.8 76 76 ESE 7 11 30.12 1020 10 16.09344 0 0
9:55 pm 21:55 Clear 69 20.6 61 16 75 75 E 7 11 30.12 1020 10 16.09344 0 0
10:15 pm 22:15 Clear 68 20 60 15.5 75 75 ESE 8 13 30.12 1020 10 16.09344 0 0
10:35 pm 22:35 Clear 67 19.4 59 15 76 76 E 6 9 30.15 1021 10 16.09344 0 0
10:55 pm 22:55 Clear 64 18 59 14.8 82 82 ESE 5 7 30.18 1022 10 16.09344 0 0
11:15 pm 23:15 Clear 63 17.4 58 14.5 83 83 E 3 6 30.18 1022 10 16.09344 0 0
11:35 pm 23:35 Clear 62 16.5 58 14.5 88 88 E 5 7 30.18 1022 10 16.09344 0 0
11:55 pm 23:55 Clear 61 15.9 58 14.2 90 90 E 3 6 30.18 1022 10 16.09344 0 0

Powered by AerisWeather